Main page
METAR-TAF:

METAR-TAF

Airports :

Calais–Dunkerque Airport

Calais, France

latitude: 50-57-39N, longitude: 001-57-05E, elevation: 4 m

Current weather observation

The report was made 2 hours and 16 minutes ago, at 20:00 UTC
Wind 20 kt from the West/Southwest
Temperature 16°C
Humidity 88%
Pressure 1005 hPa
Visibility 10 km or more
Overcast at a height of 1300 ft

METAR: LFAC 302000Z AUTO 24020KT 9999 OVC013 16/14 Q1005

Time: 00:16 (22:16 UTC)


TAF: missing

Weather observations and forecasts of more than 4000 airports (METAR and TAF reports).

The available stations are represented by yellow and red dots on the map.

Hover mouse over dot to see the name of the station.

Then click to see weather observations and forecasts.

To change the map : click on the green buttons with a black cross to zoom in, on the green button with a dash to zoom out, or on the green arrows for adjacent maps.


METAR-TAF: